Tracking 30509 objects as of 21-May-2025
HD Live streaming from Space Station
objects crossing your sky now

THOR ABLESTAR DEB

Track THOR ABLESTAR DEB now!
10-day predictions


NORAD ID: 3842
Int'l Code: 1961-015JF
Perigee: 904.3 km
Apogee: 1,095.5 km
Inclination: 66.7 °
Period: 105.0 minutes
Semi major axis: 7370 km
RCS: 0.0118 m2 (small)
Launch date: June 29, 1961
Source: United States (US)
Launch site: AIR FORCE EASTERN TEST RANGE (AFETR)

Note: This is SATELLITE DEBRIS
Your satellite tracking list
Your tracking list is empty




NASA's NSSDC Master Catalog

Two Line Element Set (TLE):
1 03842U 61015JF  25140.69572598  .00000245  00000-0  33059-3 0  9997
2 03842  66.7377 234.0155 0129677   7.2962 352.9953 13.71893597181338
Source of the keplerian elements: AFSPC